Вернуться в каталог

RIDU-SAT 1

АктивенНаукаSSO
NORAD 64532·PAYLOAD·🇮🇩 Indonesia
Это название спутника еще не подтверждено официальными источниками.

Запущен Jun 23, 2025 с Vandenberg Space Force Base

Loading…

Ближайшие Пролёты (ближайшие 24 часа)

TLE

СвежийSource: Space-Track

Эпоха: Sep 14, 2026, 18:31 UTC

1 64532U 25135E   26257.77154971  .00009410  00000-0  34834-3 0  9998
2 64532  97.4817  14.1555 0003793 193.5135 166.6003 15.27882057 68593

Отслеживайте RIDU-SAT 1 в реальном времени с AllMySat

Download on the App Store